DELTA 1 DEB, 7156

Orbit data source: Space-Track

DELTA 1 DEB, 7156 is space debris in SSO originally from a launch on Tue, 06 Nov 1973 UTC launched from the Air Force Western Test Range (AFWTR). Debris objects in space refer to the collection of defunct objects orbiting the Earth. Examples of debris include non-operational satellites, rocket bodies, and fragments generated from explosions, collisions, or faulty payload assembly.

Loading next visibility...
Identifier
7156, 1973-086DV
Orbit
SSO
Country
Flag of USUS
Related business
Manufacturer
Unknown
Mission
Spacecraft
Bus & Motor
Unknown
Mass
Unknown
Launch date (UTC)
1973-11-06 (52 years ago)
Launch vehicle
Unknown
Launch site
Air Force Western Test Range (AFWTR)
Object type
Payload
Rocket body
Debris
Shape & HBR
Unknown shape, 0.2 m
Radar Cross Section
Medium (>0.1 m² and <1 m²)

Expand to show TLE details & history
Last TLE update: 12 hours ago

TLE from 12 hours ago
0 DELTA 1 DEB
1  7156U 73086DV  26124.22062852 -.00000076  00000-0 -34586-3 0  9999
2  7156 101.9994 359.3226 0136416 270.4658 210.3965 12.14427219327154
Epoch: 2026-05-04T05:17Z
TLE epoch observation values (Epoch: 2026-05-04T05:17:42.304Z)
Latitude
57.91177°
Longitude
-102.50003°
Altitude
1,720.905 km
Speed
6.98 km/s
True Right ascension
13h 16m 09s
True Declination
57° 46' 31"
Sunlit
Object was in daylight at epoch
Visualization orbit readout
Latitude
Unknown
Longitude
Unknown
Altitude
Unknown
Speed
Unknown
Apparent Right ascension
Unknown
Apparent Declination
Unknown
Sunlit
N/A
Visualization observer readout
Local Sidereal Time
01:31:30
Azimuth
Unknown
Elevation
Unknown
Doppler factor
Unknown
Orbital elements
Apogee altitude
1,723.547 km
Perigee altitude
1,505.482 km
Semi-major axis
7,992.651 km
Eccentricity
0.01364
Inclination
101.9994°
RAAN
359.3226°
Arg. of periapsis
270.4658°
True anomaly
209.61704°
Mean anomaly
210.3965°
Eccentric anomaly
210.00563°
Mean motion
3.03743 °/min
Orbital period
118.52 mins
BSTAR
-0.00034586
Loading maneuver chart data...
Computing Atmospheric mass density...
Loading historical data...
Loading historical data...
Loading historical data...
Loading historical data...
Loading historical data...
Loading historical data...
Loading historical data...

Documentation

Showing up to 5 results
|